Weather History for KBFM - April, 2014

Change the Weather History Date:

Wednesday, April 2, 2014

  Actual Average Record
Temperature  
Mean Temperature 67 °F -  
Max Temperature 75 °F 71 °F 82 °F (2007)
Min Temperature 61 °F 54 °F 45 °F (2001)
Cooling Degree Days 2    
Growing Degree Days 17 (Base 50)    
Moisture  
Dew Point 63 °F    
Average Humidity 88    
Maximum Humidity 97    
Minimum Humidity 71    
Precipitation  
Precipitation 0.00 in - - ()
Sea Level Pressure  
Sea Level Pressure 30.11 in    
Wind  
Wind Speed 7 mph (SSE)    
Max Wind Speed 14 mph    
Max Gust Speed 23 mph    
Visibility 10 miles    
Events      
Averages and records for this station are not official NWS values.
T = Trace of Precipitation, MM = Missing Value Source: NWS Daily Summary

Daily Weather History Graph

Daily Weather History Graph

Search for Another Location

Airport or City:

Trip Planner

Search our weather history database for the weather conditions in past years. The results will help you decide how hot, cold, wet, or windy it might be!

Date:

Astronomy

Apr. 02, 2014 Rise Set
Actual Time 6:40 AM CDT 7:11 PM CDT
Civil Twilight 6:15 AM CDT 7:36 PM CDT
Nautical Twilight 5:47 AM CDT 8:04 PM CDT
Astronomical Twilight 5:18 AM CDT 8:33 PM CDT
Moon 8:35 AM CDT (4/2) 10:22 PM CDT (4/2)
Length of Visible Light 13h 20m
Length of Day
12h 31m
Waxing Crescent, 10% of the Moon is Illuminated
Apr 2
Waxing Crescent
Apr 7
First Quarter
Apr 15
Full
Apr 22
Last Quarter
Apr 29
New

Hourly Weather History & Observations

Time (CDT) Temp. Dew Point Humidity Pressure Visibility Wind Dir Wind Speed Gust Speed Precip Events Conditions
12:53 AM 61.0 °F 59.0 °F 93% 30.11 in 10.0 mi SE 6.9 mph - N/A   Clear
1:53 AM 62.1 °F 60.1 °F 93% 30.10 in 10.0 mi SE 6.9 mph - N/A   Clear
2:16 AM 62.1 °F 60.1 °F 93% 30.09 in 10.0 mi SE 8.1 mph - N/A   Scattered Clouds
2:25 AM 62.1 °F 61.0 °F 96% 30.10 in 10.0 mi SSE 6.9 mph - N/A   Mostly Cloudy
2:53 AM 63.0 °F 62.1 °F 97% 30.09 in 10.0 mi SSE 6.9 mph - N/A   Overcast
3:27 AM 63.0 °F 62.1 °F 97% 30.09 in 9.0 mi SSE 5.8 mph - N/A   Overcast
3:53 AM 64.0 °F 62.1 °F 93% 30.09 in 8.0 mi SE 4.6 mph - N/A   Overcast
4:53 AM 63.0 °F 62.1 °F 97% 30.09 in 7.0 mi ESE 5.8 mph - N/A   Overcast
5:53 AM 63.0 °F 62.1 °F 97% 30.10 in 9.0 mi ESE 4.6 mph - N/A   Overcast
7:53 AM 64.0 °F 63.0 °F 96% 30.12 in 8.0 mi Calm Calm - N/A   Overcast
8:53 AM 66.0 °F 64.0 °F 93% 30.13 in 7.0 mi SSE 5.8 mph - N/A   Overcast
9:36 AM 69.1 °F 64.9 °F 87% 30.14 in 10.0 mi SSE 8.1 mph - N/A   Mostly Cloudy
9:53 AM 69.1 °F 64.9 °F 87% 30.15 in 10.0 mi South 6.9 mph - N/A   Mostly Cloudy
10:53 AM 71.1 °F 64.0 °F 78% 30.15 in 10.0 mi SSE 13.8 mph 19.6 mph N/A   Mostly Cloudy
11:53 AM 73.0 °F 64.9 °F 76% 30.15 in 10.0 mi SSE 10.4 mph - N/A   Scattered Clouds
12:53 PM 73.9 °F 64.0 °F 71% 30.14 in 10.0 mi SSE 11.5 mph 20.7 mph N/A   Scattered Clouds
1:53 PM 73.0 °F 64.0 °F 73% 30.12 in 10.0 mi SSE 13.8 mph 23.0 mph N/A   Scattered Clouds
2:53 PM 73.0 °F 64.0 °F 73% 30.11 in 10.0 mi SSE 9.2 mph 20.7 mph N/A   Scattered Clouds
3:53 PM 72.0 °F 64.9 °F 78% 30.10 in 10.0 mi SSE 12.7 mph - N/A   Scattered Clouds
4:53 PM 71.1 °F 64.9 °F 81% 30.10 in 10.0 mi South 9.2 mph - N/A   Mostly Cloudy
5:53 PM 70.0 °F 64.0 °F 81% 30.10 in 10.0 mi South 8.1 mph - N/A   Partly Cloudy
6:53 PM 69.1 °F 64.0 °F 84% 30.10 in 10.0 mi South 6.9 mph - N/A   Partly Cloudy
7:53 PM 66.9 °F 64.0 °F 90% 30.09 in 10.0 mi SSE 5.8 mph - N/A   Partly Cloudy
8:53 PM 66.0 °F 63.0 °F 90% 30.11 in 10.0 mi SE 4.6 mph - N/A   Clear
9:53 PM 64.9 °F 63.0 °F 93% 30.10 in 10.0 mi SE 5.8 mph - N/A   Partly Cloudy
10:09 PM 66.0 °F 63.0 °F 90% 30.10 in 10.0 mi SSE 3.5 mph - N/A   Mostly Cloudy
10:53 PM 64.9 °F 63.0 °F 93% 30.09 in 10.0 mi SSE 5.8 mph - N/A   Overcast
11:09 PM 64.9 °F 64.0 °F 97% 30.09 in 10.0 mi South 4.6 mph - N/A   Overcast
11:23 PM 66.0 °F 64.0 °F 93% 30.09 in 10.0 mi South 4.6 mph - N/A   Overcast
11:53 PM 66.9 °F 64.9 °F 93% 30.09 in 10.0 mi SSE 9.2 mph - N/A   Overcast